Overview Statistics Trail Chart Weather Telemetry Raw packets
 

This is the latest recevied weather packets stored in our database for station/object WI0K. If no packets are shown the sender has not sent any weather packets the latest 10 day(s).

<< 98 99 100 101 102 103 104 >>
Time Temp. Humidity Pressure Rain* Wind** Luminosity Snow
1787934270 27.78° C 34% 1021.7 hPa 0 mm - 744 W/m² -
1787933969 27.78° C 35% 1021.7 hPa 0 mm - 695 W/m² -
1787933670 27.22° C 36% 1021.7 hPa 0 mm - 695 W/m² -
1787933368 26.67° C 35% 1021.8 hPa 0 mm - 558 W/m² -
1787933067 26.11° C 40% 1021.8 hPa 0 mm - 677 W/m² -
1787932767 26.11° C 38% 1021.8 hPa 0 mm - 161 W/m² -
1787932466 26.67° C 38% 1021.7 hPa 0 mm - 395 W/m² -
1787932166 26.11° C 40% 1021.7 hPa 0 mm - 662 W/m² -
1787931865 26.11° C 42% 1021.7 hPa 0 mm - 620 W/m² -
1787931565 25.56° C 41% 1021.7 hPa 0 mm - 611 W/m² -
1787931264 25.56° C 39% 1021.7 hPa 0 mm - 588 W/m² -
1787930963 25.56° C 41% 1021.8 hPa 0 mm - 575 W/m² -
1787930662 25° C 42% 1021.9 hPa 0 mm - 555 W/m² -
1787930362 25° C 45% 1021.9 hPa 0 mm - 536 W/m² -
1787930061 24.44° C 42% 1022.1 hPa 0 mm - 518 W/m² -
1787929760 24.44° C 44% 1022.1 hPa 0 mm - 486 W/m² -
1787929459 23.89° C 43% 1022.1 hPa 0 mm - 482 W/m² -
1787929159 23.89° C 44% 1022.2 hPa 0 mm - 460 W/m² -
1787928858 23.89° C 44% 1022.2 hPa 0 mm - 445 W/m² -
1787928557 23.89° C 45% 1022.3 hPa 0 mm - 425 W/m² -
1787928257 23.89° C 45% 1022.3 hPa 0 mm - 406 W/m² -
1787927956 23.33° C 46% 1022.4 hPa 0 mm - 385 W/m² -
1787927656 23.33° C 44% 1022.4 hPa 0 mm - 369 W/m² -
1787927355 22.78° C 47% 1022.4 hPa 0 mm - 348 W/m² -
1787927055 22.78° C 49% 1022.4 hPa 0 mm - 331 W/m² -

* Rain latest hour (hover to see other rain measurements)
** Current wind speed in m/s (hover to see current wind gust speed)